owner,sensor,date,latitude,longitude,vertical_datum,sea_water_temperature,qcFlag
BP,ioos:station:wmo:42369:4,2021-12-01T00:00:00Z,27.2135,-90.2783,1342.0,4.4,11113222
BP,ioos:station:wmo:42369:4,2021-12-01T00:20:00Z,27.2135,-90.2783,1342.0,4.4,11113222
BP,ioos:station:wmo:42369:4,2021-12-01T00:40:00Z,27.2135,-90.2781,1342.0,4.4,11113222
BP,ioos:station:wmo:42369:4,2021-12-01T01:00:00Z,27.2136,-90.2783,1342.0,4.4,11113222
BP,ioos:station:wmo:42369:4,2021-12-01T01:20:00Z,27.2137,-90.2784,1342.0,4.4,11113222
BP,ioos:station:wmo:42369:4,2021-12-01T01:40:00Z,27.2138,-90.2787,1342.0,4.4,11113222
BP,ioos:station:wmo:42369:4,2021-12-01T02:00:00Z,27.2139,-90.2788,1342.0,4.4,11113222
BP,ioos:station:wmo:42369:4,2021-12-01T02:20:00Z,27.2140,-90.2788,1342.0,4.4,11113222
BP,ioos:station:wmo:42369:4,2021-12-01T02:40:00Z,27.2140,-90.2788,1342.0,4.4,11113222
BP,ioos:station:wmo:42369:4,2021-12-01T03:00:00Z,27.2140,-90.2788,1342.0,4.4,11113222
BP,ioos:station:wmo:42369:4,2021-12-01T03:20:00Z,27.2141,-90.2788,1342.0,4.4,11113222
BP,ioos:station:wmo:42369:4,2021-12-01T03:40:00Z,27.2142,-90.2789,1342.0,4.4,11113222
BP,ioos:station:wmo:42369:4,2021-12-01T04:00:00Z,27.2142,-90.2790,1342.0,4.4,11113222
BP,ioos:station:wmo:42369:4,2021-12-01T04:20:00Z,27.2143,-90.2791,1342.0,4.4,11113222
BP,ioos:station:wmo:42369:4,2021-12-01T04:40:00Z,27.2143,-90.2791,1342.0,4.4,11113222
BP,ioos:station:wmo:42369:4,2021-12-01T05:00:00Z,27.2144,-90.2791,1342.0,4.4,11113222
BP,ioos:station:wmo:42369:4,2021-12-01T05:20:00Z,27.2143,-90.2791,1342.0,4.4,11113222
BP,ioos:station:wmo:42369:4,2021-12-01T05:40:00Z,27.2143,-90.2790,1342.0,4.3,11113222
BP,ioos:station:wmo:42369:4,2021-12-01T06:00:00Z,27.2144,-90.2789,1342.0,4.3,11113222
BP,ioos:station:wmo:42369:4,2021-12-01T06:40:00Z,27.2143,-90.2787,1342.0,4.3,11113222
BP,ioos:station:wmo:42369:4,2021-12-01T07:00:00Z,27.2142,-90.2783,1342.0,4.3,11113222
BP,ioos:station:wmo:42369:4,2021-12-01T07:20:00Z,27.2141,-90.2780,1342.0,4.3,11113222
BP,ioos:station:wmo:42369:4,2021-12-01T07:40:00Z,27.2139,-90.2776,1342.0,4.3,11113222
BP,ioos:station:wmo:42369:4,2021-12-01T08:00:00Z,27.2139,-90.2777,1342.0,4.4,11113222
BP,ioos:station:wmo:42369:4,2021-12-01T08:20:00Z,27.2138,-90.2776,1342.0,4.3,11113222
BP,ioos:station:wmo:42369:4,2021-12-01T08:40:00Z,27.2138,-90.2776,1342.0,4.3,11113222
BP,ioos:station:wmo:42369:4,2021-12-01T09:00:00Z,27.2139,-90.2775,1342.0,4.3,11113222
BP,ioos:station:wmo:42369:4,2021-12-01T09:20:00Z,27.2139,-90.2776,1342.0,4.3,11113222
BP,ioos:station:wmo:42369:4,2021-12-01T09:40:00Z,27.2140,-90.2777,1342.0,4.3,11113222
BP,ioos:station:wmo:42369:4,2021-12-01T10:00:00Z,27.2140,-90.2777,1342.0,4.3,11113222
BP,ioos:station:wmo:42369:4,2021-12-01T10:20:00Z,27.2142,-90.2779,1342.0,4.3,11113222
BP,ioos:station:wmo:42369:4,2021-12-01T10:40:00Z,27.2143,-90.2780,1342.0,4.3,11113222
BP,ioos:station:wmo:42369:4,2021-12-01T11:00:00Z,27.2143,-90.2780,1342.0,4.3,11113222
BP,ioos:station:wmo:42369:4,2021-12-01T11:20:00Z,27.2143,-90.2780,1342.0,4.3,11113222
BP,ioos:station:wmo:42369:4,2021-12-01T11:40:00Z,27.2143,-90.2778,1342.0,4.3,11113222
BP,ioos:station:wmo:42369:4,2021-12-01T12:00:00Z,27.2141,-90.2777,1342.0,4.3,11113222
BP,ioos:station:wmo:42369:4,2021-12-01T12:20:00Z,27.2138,-90.2774,1342.0,4.3,11113222
BP,ioos:station:wmo:42369:4,2021-12-01T12:40:00Z,27.2138,-90.2773,1342.0,4.3,11113222
BP,ioos:station:wmo:42369:4,2021-12-01T13:00:00Z,27.2137,-90.2773,1342.0,4.3,11113222
BP,ioos:station:wmo:42369:4,2021-12-01T13:20:00Z,27.2137,-90.2773,1342.0,4.3,11113222
BP,ioos:station:wmo:42369:4,2021-12-01T13:40:00Z,27.2137,-90.2772,1342.0,4.3,11113222
BP,ioos:station:wmo:42369:4,2021-12-01T14:00:00Z,27.2136,-90.2771,1342.0,4.3,11113222
BP,ioos:station:wmo:42369:4,2021-12-01T14:20:00Z,27.2136,-90.2771,1342.0,4.3,11113222
BP,ioos:station:wmo:42369:4,2021-12-01T14:40:00Z,27.2136,-90.2771,1342.0,4.3,11113222
BP,ioos:station:wmo:42369:4,2021-12-01T15:00:00Z,27.2135,-90.2773,1342.0,4.3,11113222
BP,ioos:station:wmo:42369:4,2021-12-01T15:20:00Z,27.2135,-90.2774,1342.0,4.3,11113222
BP,ioos:station:wmo:42369:4,2021-12-01T15:40:00Z,27.2135,-90.2774,1342.0,4.3,11113222
BP,ioos:station:wmo:42369:4,2021-12-01T16:00:00Z,27.2135,-90.2776,1342.0,4.3,11113222
BP,ioos:station:wmo:42369:4,2021-12-01T16:20:00Z,27.2135,-90.2776,1342.0,4.3,11113222
BP,ioos:station:wmo:42369:4,2021-12-01T16:40:00Z,27.2135,-90.2776,1342.0,4.3,11113222
BP,ioos:station:wmo:42369:4,2021-12-01T17:00:00Z,27.2135,-90.2777,1342.0,4.3,11113222
BP,ioos:station:wmo:42369:4,2021-12-01T17:20:00Z,27.2135,-90.2778,1342.0,4.3,11113222
BP,ioos:station:wmo:42369:4,2021-12-01T17:40:00Z,27.2135,-90.2779,1342.0,4.3,11113222
BP,ioos:station:wmo:42369:4,2021-12-01T18:00:00Z,27.2135,-90.2779,1342.0,4.3,11113222
BP,ioos:station:wmo:42369:4,2021-12-01T18:20:00Z,27.2135,-90.2781,1342.0,4.3,11113222
BP,ioos:station:wmo:42369:4,2021-12-01T18:40:00Z,27.2135,-90.2783,1342.0,4.3,11113222
BP,ioos:station:wmo:42369:4,2021-12-01T19:00:00Z,27.2135,-90.2783,1342.0,4.3,11113222
BP,ioos:station:wmo:42369:4,2021-12-01T19:20:00Z,27.2135,-90.2785,1342.0,4.3,11113222
BP,ioos:station:wmo:42369:4,2021-12-01T19:40:00Z,27.2135,-90.2785,1342.0,4.3,11113222
BP,ioos:station:wmo:42369:4,2021-12-01T20:00:00Z,27.2135,-90.2788,1342.0,4.3,11113222
BP,ioos:station:wmo:42369:4,2021-12-01T20:20:00Z,27.2135,-90.2789,1342.0,4.3,11113222
BP,ioos:station:wmo:42369:4,2021-12-01T20:40:00Z,27.2135,-90.2789,1342.0,4.3,11113222
BP,ioos:station:wmo:42369:4,2021-12-01T21:00:00Z,27.2135,-90.2791,1342.0,4.3,11113222
BP,ioos:station:wmo:42369:4,2021-12-01T21:20:00Z,27.2135,-90.2791,1342.0,4.3,11113222
BP,ioos:station:wmo:42369:4,2021-12-01T21:40:00Z,27.2135,-90.2790,1342.0,4.3,11113222
BP,ioos:station:wmo:42369:4,2021-12-01T22:00:00Z,27.2135,-90.2790,1342.0,4.3,11113222
BP,ioos:station:wmo:42369:4,2021-12-01T22:20:00Z,27.2135,-90.2790,1342.0,4.3,11113222
BP,ioos:station:wmo:42369:4,2021-12-01T22:40:00Z,27.2135,-90.2790,1342.0,4.3,11113222
BP,ioos:station:wmo:42369:4,2021-12-01T23:00:00Z,27.2135,-90.2790,1342.0,4.3,11113222
BP,ioos:station:wmo:42369:4,2021-12-01T23:20:00Z,27.2134,-90.2791,1342.0,4.3,11113222
BP,ioos:station:wmo:42369:4,2021-12-01T23:40:00Z,27.2134,-90.2792,1342.0,4.3,11113222
BP,ioos:station:wmo:42369:4,2021-12-02T00:00:00Z,27.2135,-90.2792,1342.0,4.3,11113222
BP,ioos:station:wmo:42369:4,2021-12-02T00:20:00Z,27.2135,-90.2793,1342.0,4.3,11113222
BP,ioos:station:wmo:42369:4,2021-12-02T00:40:00Z,27.2135,-90.2793,1342.0,4.3,11113222
BP,ioos:station:wmo:42369:4,2021-12-02T01:00:00Z,27.2136,-90.2793,1342.0,4.3,11113222
BP,ioos:station:wmo:42369:4,2021-12-02T01:20:00Z,27.2136,-90.2793,1342.0,4.3,11113222
BP,ioos:station:wmo:42369:4,2021-12-02T01:40:00Z,27.2136,-90.2794,1342.0,4.3,11113222
BP,ioos:station:wmo:42369:4,2021-12-02T02:00:00Z,27.2136,-90.2794,1342.0,4.4,11113222
BP,ioos:station:wmo:42369:4,2021-12-02T02:20:00Z,27.2136,-90.2795,1342.0,4.4,11113222
BP,ioos:station:wmo:42369:4,2021-12-02T02:40:00Z,27.2135,-90.2794,1342.0,4.4,11113222
BP,ioos:station:wmo:42369:4,2021-12-02T03:00:00Z,27.2135,-90.2793,1342.0,4.4,11113222
BP,ioos:station:wmo:42369:4,2021-12-02T03:20:00Z,27.2135,-90.2789,1342.0,4.3,11113222
BP,ioos:station:wmo:42369:4,2021-12-02T03:40:00Z,27.2134,-90.2787,1342.0,4.3,11113222
BP,ioos:station:wmo:42369:4,2021-12-02T04:00:00Z,27.2133,-90.2785,1342.0,4.3,11113222
BP,ioos:station:wmo:42369:4,2021-12-02T04:20:00Z,27.2134,-90.2785,1342.0,4.3,11113222
BP,ioos:station:wmo:42369:4,2021-12-02T04:40:00Z,27.2133,-90.2785,1342.0,4.3,11113222
BP,ioos:station:wmo:42369:4,2021-12-02T05:00:00Z,27.2133,-90.2785,1342.0,4.3,11113222
BP,ioos:station:wmo:42369:4,2021-12-02T05:20:00Z,27.2134,-90.2785,1342.0,4.3,11113222
BP,ioos:station:wmo:42369:4,2021-12-02T05:40:00Z,27.2134,-90.2785,1342.0,4.3,11113222
BP,ioos:station:wmo:42369:4,2021-12-02T06:00:00Z,27.2134,-90.2783,1342.0,4.3,11113222
BP,ioos:station:wmo:42369:4,2021-12-02T06:20:00Z,27.2133,-90.2782,1342.0,4.3,11113222
BP,ioos:station:wmo:42369:4,2021-12-02T06:40:00Z,27.2133,-90.2781,1342.0,4.3,11113222
BP,ioos:station:wmo:42369:4,2021-12-02T07:00:00Z,27.2133,-90.2780,1342.0,4.3,11113222
BP,ioos:station:wmo:42369:4,2021-12-02T07:20:00Z,27.2132,-90.2778,1342.0,4.3,11113222
BP,ioos:station:wmo:42369:4,2021-12-02T07:40:00Z,27.2132,-90.2777,1342.0,4.3,11113222
BP,ioos:station:wmo:42369:4,2021-12-02T08:00:00Z,27.2132,-90.2777,1342.0,4.3,11113222
BP,ioos:station:wmo:42369:4,2021-12-02T08:20:00Z,27.2132,-90.2776,1342.0,4.3,11113222
BP,ioos:station:wmo:42369:4,2021-12-02T08:40:00Z,27.2132,-90.2776,1342.0,4.3,11113222
BP,ioos:station:wmo:42369:4,2021-12-02T09:00:00Z,27.2133,-90.2776,1342.0,4.3,11113222
BP,ioos:station:wmo:42369:4,2021-12-02T09:20:00Z,27.2133,-90.2776,1342.0,4.3,11113222
BP,ioos:station:wmo:42369:4,2021-12-02T09:40:00Z,27.2133,-90.2776,1342.0,4.3,11113222
BP,ioos:station:wmo:42369:4,2021-12-02T10:00:00Z,27.2134,-90.2777,1342.0,4.3,11113222
BP,ioos:station:wmo:42369:4,2021-12-02T10:20:00Z,27.2136,-90.2779,1342.0,4.3,11113222
BP,ioos:station:wmo:42369:4,2021-12-02T10:40:00Z,27.2136,-90.2779,1342.0,4.3,11113222
BP,ioos:station:wmo:42369:4,2021-12-02T11:00:00Z,27.2136,-90.2779,1342.0,4.3,11113222
BP,ioos:station:wmo:42369:4,2021-12-02T11:20:00Z,27.2134,-90.2777,1342.0,4.3,11113222
BP,ioos:station:wmo:42369:4,2021-12-02T11:40:00Z,27.2134,-90.2777,1342.0,4.3,11113222
BP,ioos:station:wmo:42369:4,2021-12-02T12:00:00Z,27.2134,-90.2777,1342.0,4.3,11113222
BP,ioos:station:wmo:42369:4,2021-12-02T12:20:00Z,27.2134,-90.2777,1342.0,4.3,11113222
BP,ioos:station:wmo:42369:4,2021-12-02T12:40:00Z,27.2134,-90.2777,1342.0,4.3,11113222
BP,ioos:station:wmo:42369:4,2021-12-02T13:00:00Z,27.2135,-90.2778,1342.0,4.3,11113222
BP,ioos:station:wmo:42369:4,2021-12-02T13:20:00Z,27.2135,-90.2779,1342.0,4.3,11113222
BP,ioos:station:wmo:42369:4,2021-12-02T13:40:00Z,27.2135,-90.2780,1342.0,4.3,11113222
BP,ioos:station:wmo:42369:4,2021-12-02T14:00:00Z,27.2136,-90.2781,1342.0,4.3,11113222
BP,ioos:station:wmo:42369:4,2021-12-02T14:20:00Z,27.2136,-90.2783,1342.0,4.3,11113222
BP,ioos:station:wmo:42369:4,2021-12-02T14:40:00Z,27.2137,-90.2785,1342.0,4.3,11113222
BP,ioos:station:wmo:42369:4,2021-12-02T15:00:00Z,27.2137,-90.2786,1342.0,4.3,11113222
BP,ioos:station:wmo:42369:4,2021-12-02T15:20:00Z,27.2138,-90.2790,1342.0,4.3,11113222
BP,ioos:station:wmo:42369:4,2021-12-02T15:40:00Z,27.2138,-90.2790,1342.0,4.3,11113222
BP,ioos:station:wmo:42369:4,2021-12-02T16:00:00Z,27.2139,-90.2793,1342.0,4.3,11113222
BP,ioos:station:wmo:42369:4,2021-12-02T16:20:00Z,27.2139,-90.2794,1342.0,4.3,11113222
BP,ioos:station:wmo:42369:4,2021-12-02T16:40:00Z,27.2139,-90.2795,1342.0,4.3,11113222
BP,ioos:station:wmo:42369:4,2021-12-02T17:00:00Z,27.2139,-90.2796,1342.0,4.3,11113222
BP,ioos:station:wmo:42369:4,2021-12-02T17:20:00Z,27.2138,-90.2794,1342.0,4.3,11113222
BP,ioos:station:wmo:42369:4,2021-12-02T17:40:00Z,27.2138,-90.2792,1342.0,4.3,11113222
BP,ioos:station:wmo:42369:4,2021-12-02T18:00:00Z,27.2138,-90.2791,1342.0,4.3,11113222
BP,ioos:station:wmo:42369:4,2021-12-02T18:20:00Z,27.2139,-90.2791,1342.0,4.3,11113222
BP,ioos:station:wmo:42369:4,2021-12-02T18:40:00Z,27.2139,-90.2791,1342.0,4.4,11113222
BP,ioos:station:wmo:42369:4,2021-12-02T19:00:00Z,27.2139,-90.2791,1342.0,4.4,11113222
BP,ioos:station:wmo:42369:4,2021-12-02T19:20:00Z,27.2139,-90.2791,1342.0,4.4,11113222
BP,ioos:station:wmo:42369:4,2021-12-02T19:40:00Z,27.2139,-90.2791,1342.0,4.4,11113222
BP,ioos:station:wmo:42369:4,2021-12-02T20:00:00Z,27.2139,-90.2790,1342.0,4.4,11113222
BP,ioos:station:wmo:42369:4,2021-12-02T20:20:00Z,27.2139,-90.2790,1342.0,4.4,11113222
BP,ioos:station:wmo:42369:4,2021-12-02T20:40:00Z,27.2140,-90.2789,1342.0,4.4,11113222
BP,ioos:station:wmo:42369:4,2021-12-02T21:00:00Z,27.2139,-90.2789,1342.0,4.3,11113222
BP,ioos:station:wmo:42369:4,2021-12-02T21:20:00Z,27.2139,-90.2788,1342.0,4.3,11113222
BP,ioos:station:wmo:42369:4,2021-12-02T21:40:00Z,27.2139,-90.2788,1342.0,4.3,11113222
BP,ioos:station:wmo:42369:4,2021-12-02T22:00:00Z,27.2139,-90.2789,1342.0,4.3,11113222
BP,ioos:station:wmo:42369:4,2021-12-02T22:20:00Z,27.2139,-90.2789,1342.0,4.3,11113222
BP,ioos:station:wmo:42369:4,2021-12-02T22:40:00Z,27.2139,-90.2789,1342.0,4.3,11113222
BP,ioos:station:wmo:42369:4,2021-12-02T23:00:00Z,27.2139,-90.2789,1342.0,4.3,11113222
BP,ioos:station:wmo:42369:4,2021-12-02T23:20:00Z,27.2139,-90.2789,1342.0,4.3,11113222
BP,ioos:station:wmo:42369:4,2021-12-02T23:40:00Z,27.2139,-90.2790,1342.0,4.3,11113222
BP,ioos:station:wmo:42369:4,2021-12-03T00:00:00Z,27.2139,-90.2790,1342.0,4.3,11113222
BP,ioos:station:wmo:42369:4,2021-12-03T00:20:00Z,27.2139,-90.2791,1342.0,4.3,11113222
BP,ioos:station:wmo:42369:4,2021-12-03T00:40:00Z,27.2139,-90.2791,1342.0,4.3,11113222
BP,ioos:station:wmo:42369:4,2021-12-03T01:00:00Z,27.2139,-90.2792,1342.0,4.3,11113222
BP,ioos:station:wmo:42369:4,2021-12-03T01:20:00Z,27.2139,-90.2792,1342.0,4.3,11113222
BP,ioos:station:wmo:42369:4,2021-12-03T01:40:00Z,27.2139,-90.2792,1342.0,4.3,11113222
BP,ioos:station:wmo:42369:4,2021-12-03T02:00:00Z,27.2139,-90.2792,1342.0,4.3,11113222
BP,ioos:station:wmo:42369:4,2021-12-03T02:20:00Z,27.2140,-90.2793,1342.0,4.3,11113222
BP,ioos:station:wmo:42369:4,2021-12-03T02:40:00Z,27.2140,-90.2794,1342.0,4.3,11113222
BP,ioos:station:wmo:42369:4,2021-12-03T03:00:00Z,27.2141,-90.2794,1342.0,4.3,11113222
BP,ioos:station:wmo:42369:4,2021-12-03T03:20:00Z,27.2141,-90.2794,1342.0,4.3,11113222
BP,ioos:station:wmo:42369:4,2021-12-03T03:40:00Z,27.2142,-90.2794,1342.0,4.3,11113222
BP,ioos:station:wmo:42369:4,2021-12-03T04:00:00Z,27.2142,-90.2794,1342.0,4.3,11113222
BP,ioos:station:wmo:42369:4,2021-12-03T04:20:00Z,27.2142,-90.2794,1342.0,4.3,11113222
BP,ioos:station:wmo:42369:4,2021-12-03T04:40:00Z,27.2142,-90.2794,1342.0,4.3,11113222
BP,ioos:station:wmo:42369:4,2021-12-03T05:00:00Z,27.2142,-90.2795,1342.0,4.3,11113222
BP,ioos:station:wmo:42369:4,2021-12-03T05:20:00Z,27.2142,-90.2796,1342.0,4.3,11113222
BP,ioos:station:wmo:42369:4,2021-12-03T05:40:00Z,27.2142,-90.2796,1342.0,4.3,11113222
BP,ioos:station:wmo:42369:4,2021-12-03T06:00:00Z,27.2143,-90.2796,1342.0,4.3,11113222
BP,ioos:station:wmo:42369:4,2021-12-03T06:20:00Z,27.2143,-90.2796,1342.0,4.3,11113222
BP,ioos:station:wmo:42369:4,2021-12-03T06:40:00Z,27.2142,-90.2794,1342.0,4.4,11113222
BP,ioos:station:wmo:42369:4,2021-12-03T07:00:00Z,27.2142,-90.2793,1342.0,4.4,11113222
BP,ioos:station:wmo:42369:4,2021-12-03T07:20:00Z,27.2142,-90.2793,1342.0,4.4,11113222
BP,ioos:station:wmo:42369:4,2021-12-03T07:40:00Z,27.2143,-90.2792,1342.0,4.4,11113222
BP,ioos:station:wmo:42369:4,2021-12-03T08:00:00Z,27.2143,-90.2792,1342.0,4.4,11113222
BP,ioos:station:wmo:42369:4,2021-12-03T08:20:00Z,27.2143,-90.2792,1342.0,4.4,11113222
BP,ioos:station:wmo:42369:4,2021-12-03T08:40:00Z,27.2143,-90.2792,1342.0,4.4,11113222
BP,ioos:station:wmo:42369:4,2021-12-03T09:00:00Z,27.2143,-90.2793,1342.0,4.4,11113222
BP,ioos:station:wmo:42369:4,2021-12-03T09:20:00Z,27.2143,-90.2790,1342.0,4.4,11113222
BP,ioos:station:wmo:42369:4,2021-12-03T09:40:00Z,27.2142,-90.2787,1342.0,4.4,11113222
BP,ioos:station:wmo:42369:4,2021-12-03T10:00:00Z,27.2142,-90.2787,1342.0,4.4,11113222
BP,ioos:station:wmo:42369:4,2021-12-03T10:20:00Z,27.2141,-90.2785,1342.0,4.4,11113222
BP,ioos:station:wmo:42369:4,2021-12-03T10:40:00Z,27.2141,-90.2785,1342.0,4.4,11113222
BP,ioos:station:wmo:42369:4,2021-12-03T11:00:00Z,27.2141,-90.2784,1342.0,4.4,11113222
BP,ioos:station:wmo:42369:4,2021-12-03T11:20:00Z,27.2141,-90.2784,1342.0,4.4,11113222
BP,ioos:station:wmo:42369:4,2021-12-03T11:40:00Z,27.2140,-90.2784,1342.0,4.4,11113222
BP,ioos:station:wmo:42369:4,2021-12-03T12:00:00Z,27.2140,-90.2784,1342.0,4.4,11113222
BP,ioos:station:wmo:42369:4,2021-12-03T12:20:00Z,27.2140,-90.2785,1342.0,4.4,11113222
BP,ioos:station:wmo:42369:4,2021-12-03T12:40:00Z,27.2141,-90.2785,1342.0,4.4,11113222
BP,ioos:station:wmo:42369:4,2021-12-03T13:00:00Z,27.2141,-90.2786,1342.0,4.4,11113222
BP,ioos:station:wmo:42369:4,2021-12-03T13:20:00Z,27.2141,-90.2786,1342.0,4.4,11113222
BP,ioos:station:wmo:42369:4,2021-12-03T13:40:00Z,27.2140,-90.2786,1342.0,4.3,11113222
BP,ioos:station:wmo:42369:4,2021-12-03T14:00:00Z,27.2140,-90.2786,1342.0,4.3,11113222
BP,ioos:station:wmo:42369:4,2021-12-03T14:20:00Z,27.2140,-90.2787,1342.0,4.3,11113222
BP,ioos:station:wmo:42369:4,2021-12-03T14:40:00Z,27.2140,-90.2787,1342.0,4.3,11113222
BP,ioos:station:wmo:42369:4,2021-12-03T15:00:00Z,27.2140,-90.2787,1342.0,4.4,11113222
BP,ioos:station:wmo:42369:4,2021-12-03T15:20:00Z,27.2140,-90.2787,1342.0,4.4,11113222
BP,ioos:station:wmo:42369:4,2021-12-03T15:40:00Z,27.2140,-90.2787,1342.0,4.4,11113222
BP,ioos:station:wmo:42369:4,2021-12-03T16:00:00Z,27.2140,-90.2787,1342.0,4.4,11113222
BP,ioos:station:wmo:42369:4,2021-12-03T16:20:00Z,27.2141,-90.2788,1342.0,4.4,11113222
BP,ioos:station:wmo:42369:4,2021-12-03T16:40:00Z,27.2141,-90.2788,1342.0,4.4,11113222
BP,ioos:station:wmo:42369:4,2021-12-03T17:00:00Z,27.2141,-90.2788,1342.0,4.4,11113222
BP,ioos:station:wmo:42369:4,2021-12-03T17:20:00Z,27.2142,-90.2789,1342.0,4.4,11113222
BP,ioos:station:wmo:42369:4,2021-12-03T17:40:00Z,27.2142,-90.2789,1342.0,4.4,11113222
BP,ioos:station:wmo:42369:4,2021-12-03T18:00:00Z,27.2143,-90.2790,1342.0,4.4,11113222
BP,ioos:station:wmo:42369:4,2021-12-03T18:20:00Z,27.2143,-90.2790,1342.0,4.4,11113222
BP,ioos:station:wmo:42369:4,2021-12-03T18:40:00Z,27.2143,-90.2790,1342.0,4.4,11113222
BP,ioos:station:wmo:42369:4,2021-12-03T19:00:00Z,27.2143,-90.2790,1342.0,4.4,11113222
BP,ioos:station:wmo:42369:4,2021-12-03T19:20:00Z,27.2144,-90.2790,1342.0,4.4,11113222
BP,ioos:station:wmo:42369:4,2021-12-03T19:40:00Z,27.2144,-90.2791,1342.0,4.4,11113222
BP,ioos:station:wmo:42369:4,2021-12-03T20:00:00Z,27.2144,-90.2791,1342.0,4.4,11113222
BP,ioos:station:wmo:42369:4,2021-12-03T20:20:00Z,27.2144,-90.2791,1342.0,4.4,11113222
BP,ioos:station:wmo:42369:4,2021-12-03T20:40:00Z,27.2145,-90.2792,1342.0,4.4,11113222
BP,ioos:station:wmo:42369:4,2021-12-03T21:00:00Z,27.2146,-90.2793,1342.0,4.4,11113222
BP,ioos:station:wmo:42369:4,2021-12-03T21:20:00Z,27.2146,-90.2794,1342.0,4.4,11113222
BP,ioos:station:wmo:42369:4,2021-12-03T21:40:00Z,27.2146,-90.2795,1342.0,4.4,11113222
BP,ioos:station:wmo:42369:4,2021-12-03T22:00:00Z,27.2146,-90.2796,1342.0,4.4,11113222
BP,ioos:station:wmo:42369:4,2021-12-03T22:20:00Z,27.2146,-90.2796,1342.0,4.4,11113222
BP,ioos:station:wmo:42369:4,2021-12-03T22:40:00Z,27.2146,-90.2796,1342.0,4.4,11113222
BP,ioos:station:wmo:42369:4,2021-12-03T23:00:00Z,27.2146,-90.2796,1342.0,4.4,11113222
BP,ioos:station:wmo:42369:4,2021-12-03T23:20:00Z,27.2141,-90.2784,1342.0,4.4,11113222
BP,ioos:station:wmo:42369:4,2021-12-03T23:40:00Z,27.2140,-90.2783,1342.0,4.4,11113222
BP,ioos:station:wmo:42369:4,2021-12-04T00:00:00Z,27.2140,-90.2782,1342.0,4.4,11113222
BP,ioos:station:wmo:42369:4,2021-12-04T00:20:00Z,27.2140,-90.2782,1342.0,4.4,11113222
BP,ioos:station:wmo:42369:4,2021-12-04T00:40:00Z,27.2140,-90.2783,1342.0,4.4,11113222
BP,ioos:station:wmo:42369:4,2021-12-04T01:00:00Z,27.2140,-90.2783,1342.0,4.4,11113222
BP,ioos:station:wmo:42369:4,2021-12-04T01:20:00Z,27.2140,-90.2784,1342.0,4.4,11113222
BP,ioos:station:wmo:42369:4,2021-12-04T01:40:00Z,27.2141,-90.2785,1342.0,4.4,11113222
BP,ioos:station:wmo:42369:4,2021-12-04T02:00:00Z,27.2141,-90.2785,1342.0,4.4,11113222
BP,ioos:station:wmo:42369:4,2021-12-04T02:20:00Z,27.2141,-90.2785,1342.0,4.4,11113222
BP,ioos:station:wmo:42369:4,2021-12-04T02:40:00Z,27.2141,-90.2785,1342.0,4.4,11113222
BP,ioos:station:wmo:42369:4,2021-12-04T03:00:00Z,27.2141,-90.2785,1342.0,4.4,11113222
BP,ioos:station:wmo:42369:4,2021-12-04T03:20:00Z,27.2141,-90.2786,1342.0,4.4,11113222
BP,ioos:station:wmo:42369:4,2021-12-04T03:40:00Z,27.2142,-90.2787,1342.0,4.4,11113222
BP,ioos:station:wmo:42369:4,2021-12-04T04:00:00Z,27.2142,-90.2787,1342.0,4.4,11113222
BP,ioos:station:wmo:42369:4,2021-12-04T04:20:00Z,27.2142,-90.2788,1342.0,4.4,11113222
BP,ioos:station:wmo:42369:4,2021-12-04T04:40:00Z,27.2142,-90.2789,1342.0,4.4,11113222
BP,ioos:station:wmo:42369:4,2021-12-04T05:00:00Z,27.2142,-90.2790,1342.0,4.4,11113222
BP,ioos:station:wmo:42369:4,2021-12-04T05:20:00Z,27.2142,-90.2790,1342.0,4.4,11113222
BP,ioos:station:wmo:42369:4,2021-12-04T05:40:00Z,27.2142,-90.2789,1342.0,4.4,11113222
BP,ioos:station:wmo:42369:4,2021-12-04T06:00:00Z,27.2142,-90.2789,1342.0,4.4,11113222
BP,ioos:station:wmo:42369:4,2021-12-04T06:20:00Z,27.2142,-90.2788,1342.0,4.4,11113222
BP,ioos:station:wmo:42369:4,2021-12-04T06:40:00Z,27.2142,-90.2788,1342.0,4.4,11113222
BP,ioos:station:wmo:42369:4,2021-12-04T07:00:00Z,27.2142,-90.2787,1342.0,4.4,11113222
BP,ioos:station:wmo:42369:4,2021-12-04T07:20:00Z,27.2142,-90.2787,1342.0,4.4,11113222
BP,ioos:station:wmo:42369:4,2021-12-04T07:40:00Z,27.2142,-90.2786,1342.0,4.4,11113222
BP,ioos:station:wmo:42369:4,2021-12-04T08:00:00Z,27.2142,-90.2786,1342.0,4.4,11113222
BP,ioos:station:wmo:42369:4,2021-12-04T08:20:00Z,27.2142,-90.2785,1342.0,4.4,11113222
BP,ioos:station:wmo:42369:4,2021-12-04T08:40:00Z,27.2142,-90.2785,1342.0,4.3,11113222
BP,ioos:station:wmo:42369:4,2021-12-04T09:00:00Z,27.2142,-90.2784,1342.0,4.3,11113222
BP,ioos:station:wmo:42369:4,2021-12-04T09:40:00Z,27.2142,-90.2782,1342.0,4.3,11113222
BP,ioos:station:wmo:42369:4,2021-12-04T10:00:00Z,27.2142,-90.2782,1342.0,4.3,11113222
BP,ioos:station:wmo:42369:4,2021-12-04T10:20:00Z,27.2142,-90.2782,1342.0,4.3,11113222
BP,ioos:station:wmo:42369:4,2021-12-04T10:40:00Z,27.2142,-90.2782,1342.0,4.3,11113222
BP,ioos:station:wmo:42369:4,2021-12-04T11:00:00Z,27.2142,-90.2782,1342.0,4.3,11113222
BP,ioos:station:wmo:42369:4,2021-12-04T11:20:00Z,27.2142,-90.2782,1342.0,4.3,11113222
BP,ioos:station:wmo:42369:4,2021-12-04T11:40:00Z,27.2142,-90.2782,1342.0,4.3,11113222
BP,ioos:station:wmo:42369:4,2021-12-04T12:00:00Z,27.2142,-90.2782,1342.0,4.3,11113222
BP,ioos:station:wmo:42369:4,2021-12-04T12:20:00Z,27.2142,-90.2782,1342.0,4.3,11113222
BP,ioos:station:wmo:42369:4,2021-12-04T12:40:00Z,27.2142,-90.2782,1342.0,4.3,11113222
BP,ioos:station:wmo:42369:4,2021-12-04T13:00:00Z,27.2142,-90.2782,1342.0,4.3,11113222
BP,ioos:station:wmo:42369:4,2021-12-04T13:20:00Z,27.2142,-90.2782,1342.0,4.3,11113222
BP,ioos:station:wmo:42369:4,2021-12-04T13:40:00Z,27.2142,-90.2782,1342.0,4.3,11113222
BP,ioos:station:wmo:42369:4,2021-12-04T14:00:00Z,27.2142,-90.2783,1342.0,4.3,11113222
BP,ioos:station:wmo:42369:4,2021-12-04T14:20:00Z,27.2143,-90.2784,1342.0,4.3,11113222
BP,ioos:station:wmo:42369:4,2021-12-04T14:40:00Z,27.2142,-90.2785,1342.0,4.3,11113222
BP,ioos:station:wmo:42369:4,2021-12-04T15:00:00Z,27.2142,-90.2785,1342.0,4.3,11113222
BP,ioos:station:wmo:42369:4,2021-12-04T15:20:00Z,27.2142,-90.2786,1342.0,4.3,11113222
BP,ioos:station:wmo:42369:4,2021-12-04T15:40:00Z,27.2142,-90.2786,1342.0,4.3,11113222
BP,ioos:station:wmo:42369:4,2021-12-04T16:00:00Z,27.2141,-90.2787,1342.0,4.3,11113222
BP,ioos:station:wmo:42369:4,2021-12-04T16:20:00Z,27.2141,-90.2787,1342.0,4.3,11113222
BP,ioos:station:wmo:42369:4,2021-12-04T16:40:00Z,27.2141,-90.2787,1342.0,4.3,11113222
BP,ioos:station:wmo:42369:4,2021-12-04T17:00:00Z,27.2140,-90.2788,1342.0,4.3,11113222
BP,ioos:station:wmo:42369:4,2021-12-04T17:20:00Z,27.2140,-90.2788,1342.0,4.3,11113222
BP,ioos:station:wmo:42369:4,2021-12-04T17:40:00Z,27.2140,-90.2788,1342.0,4.3,11113222
BP,ioos:station:wmo:42369:4,2021-12-04T18:00:00Z,27.2139,-90.2788,1342.0,4.3,11113222
BP,ioos:station:wmo:42369:4,2021-12-04T18:20:00Z,27.2138,-90.2786,1342.0,4.3,11113222
BP,ioos:station:wmo:42369:4,2021-12-04T18:40:00Z,27.2137,-90.2785,1342.0,4.3,11113222
BP,ioos:station:wmo:42369:4,2021-12-04T19:00:00Z,27.2136,-90.2783,1342.0,4.3,11113222
BP,ioos:station:wmo:42369:4,2021-12-04T19:20:00Z,27.2135,-90.2781,1342.0,4.3,11113222
BP,ioos:station:wmo:42369:4,2021-12-04T19:40:00Z,27.2134,-90.2778,1342.0,4.3,11113222